Location: Caltech
(34.1382°N, 118.1253°W)
Time: 09:41:14
(UTC-07:00)

PANSAT - Visible Passes

Search period start: 30 March 2017 00:00
Search period end: 09 April 2017 00:00
Orbit: 477 x 484 km, 28.5° (Epoch: 28 March)

Date Brightness Start Highest point End Pass type
(mag) Time Alt. Az. Time Alt. Az. Time Alt. Az.
30 Mar 9.0 04:50:47 28° SE 04:50:47 28° SE 04:53:11 10° ESE visible
31 Mar 10.2 04:23:01 15° ESE 04:23:01 15° ESE 04:23:47 10° ESE visible
31 Mar 8.9 05:57:10 13° WSW 05:59:50 26° SSW 06:03:02 10° SE visible
01 Apr 8.8 05:29:27 23° SW 05:30:24 26° SSW 05:33:37 10° SE visible
02 Apr 9.1 05:01:49 24° S 05:01:49 24° S 05:04:11 10° SE visible
03 Apr 10.2 04:34:15 13° SE 04:34:15 13° SE 04:34:45 10° SE visible
03 Apr 9.8 06:10:08 10° SW 06:10:53 10° SSW 06:11:37 10° SSW visible
04 Apr 9.8 05:40:58 10° SSW 05:41:28 10° SSW 05:42:05 10° SSW visible
